Temp
25 25 25 24 21 17 20 21 21 22 22 19 19 19 20 18 20 19 19 19 20 20 19 19 19 20 20 19 19 18 18 18 17 17 16 16 16 16 15 15 15 16 16 15 15 16 15 16 16
24 25 25 16 18 19 18 19 22 21 19 16 18 19 18 19 18 19 19 20 19 20 19 20 20 20 19 19 19 19 18 17 17 16 16 16 16 15 16 15 16 15 15 15 15 15 16 15 16
24 25 20 17 15 19 19 20 21 20 17 20 19 17 18 19 19 19 20 20 19 19 19 19 19 19 19 19 19 18 18 18 18 17 16 16 17 17 17 16 16 15 15 15 15 15 15 15 16
24 21 16 19 22 21 22 21 20 18 20 19 17 18 18 18 19 19 19 19 19 19 19 19 19 19 19 19 19 18 18 18 18 17 17 17 17 17 17 17 16 16 15 15 14 14 15 15 16
22 16 18 19 21 21 20 20 17 19 21 19 19 18 18 18 19 20 19 19 19 19 19 19 19 19 19 19 19 19 18 18 17 16 17 17 17 17 17 17 17 17 16 15 15 15 16 16 16
19 16 18 20 21 22 21 19 19 21 19 18 17 16 17 18 19 19 19 19 19 20 19 19 19 19 19 19 18 18 18 18 17 17 17 17 17 17 17 17 16 16 16 16 15 16 16 16 15
19 17 19 20 21 23 22 17 19 19 19 20 16 17 17 17 18 19 19 19 19 19 19 19 19 19 18 18 18 18 18 18 17 17 17 17 17 17 17 16 16 16 16 15 15 15 15 15 15
15 16 19 19 19 22 21 19 20 20 20 16 17 18 18 17 18 18 18 19 19 19 19 18 18 18 18 18 18 18 18 18 17 17 17 17 17 17 16 16 16 16 16 15 15 15 15 15 14
16 17 18 20 19 22 20 22 19 17 17 17 17 16 17 17 17 17 17 18 18 18 18 18 18 18 18 19 18 18 18 18 17 17 16 16 17 17 16 16 16 15 14 14 15 15 14 14 14
17 16 19 18 18 22 20 21 18 20 19 19 17 16 15 16 16 16 16 17 17 18 19 18 18 19 18 18 18 18 18 18 18 18 16 16 16 16 15 16 16 15 15 14 14 14 14 14 13
18 19 19 21 21 20 20 21 18 18 19 18 17 16 13 14 15 15 16 17 18 18 18 18 18 18 18 18 17 18 17 18 18 18 17 16 16 16 15 15 15 15 14 14 13 13 13 13 13
22 20 20 21 20 20 20 19 20 17 20 17 16 15 13 12 13 14 16 17 17 17 17 17 17 18 18 18 18 18 17 17 18 17 17 16 16 15 15 15 14 14 14 13 13 13 12 12 12
21 20 21 20 20 20 20 21 20 18 17 15 14 13 12 12 13 15 16 17 16 16 16 16 16 17 17 17 17 18 18 18 18 18 17 17 16 15 15 14 14 14 14 13 13 12 12 12 11
20 20 20 19 20 20 20 20 20 19 14 15 13 12 11 11 13 14 15 16 16 16 16 16 16 16 16 16 16 17 18 17 17 18 17 17 16 15 15 14 14 14 14 13 12 12 11 11 11
19 21 19 19 19 20 19 19 18 18 14 15 13 12 11 11 13 14 16 16 16 16 15 15 15 15 15 15 15 16 17 17 17 17 17 16 16 15 15 14 13 13 13 12 12 11 11 11 10
18 16 18 19 17 19 19 17 18 15 14 14 12 11 10 10 12 14 15 15 15 15 15 14 14 14 14 14 13 15 16 16 16 16 16 16 16 15 14 14 13 13 12 12 11 11 10 10 9
14 18 17 17 16 18 18 18 19 13 12 14 12 11 10 10 11 13 15 15 15 15 14 14 13 13 11 11 12 14 14 15 15 15 15 15 15 15 14 13 13 12 12 11 11 10 11 9 8
17 17 16 17 18 17 17 15 15 15 12 13 12 11 10 10 11 14 15 14 14 14 13 13 12 11 10 11 12 13 14 14 14 14 15 15 15 14 13 13 13 12 11 11 10 10 9 8 7
16 17 17 17 17 17 15 15 16 16 12 12 11 11 11 11 14 14 15 14 13 13 12 12 11 10 10 11 11 12 13 13 13 13 13 14 14 12 12 12 12 11 11 11 10 9 8 6 7
17 17 16 15 16 16 15 15 16 14 14 14 15 14 13 13 10 10 13 13 12 12 11 11 10 10 10 10 10 11 12 11 12 12 12 12 12 12 12 11 10 11 11 10 9 9 7 6 7
15 15 15 16 16 14 14 14 14 15 14 14 13 15 14 14 14 9 9 10 11 10 11 10 9 9 10 10 10 10 10 9 9 9 10 10 11 11 11 10 10 11 11 10 10 10 10 6 6
15 14 15 16 16 14 15 14 16 17 16 14 15 13 14 14 13 11 9 8 9 11 11 10 10 8 9 10 9 11 10 7 8 9 9 9 10 10 10 10 10 11 10 10 9 9 10 9 6
16 14 14 16 14 14 13 15 17 15 16 17 17 16 15 14 12 11 9 10 9 8 10 9 9 8 9 9 9 10 9 9 9 8 8 8 9 9 9 9 10 10 10 10 10 10 9 10 9
13 15 13 11 12 13 13 14 18 15 17 18 18 16 14 13 10 9 10 10 9 8 8 9 8 8 8 9 9 9 9 9 7 6 7 7 8 8 8 9 9 10 10 10 10 9 9 9 9
16 16 15 13 11 15 12 13 19 17 16 16 18 17 15 13 9 7 6 6 6 6 6 7 7 6 7 8 8 8 9 9 9 8 7 7 7 7 8 8 8 9 9 9 9 8 8 8 7
14 15 13 13 12 13 11 12 14 14 15 15 13 13 13 11 9 6 5 6 5 6 6 6 7 6 7 8 8 8 8 8 7 7 8 8 9 8 8 8 8 8 8 8 7 7 7 6 6
14 14 16 16 3 9 16 14 15 14 13 13 13 12 11 10 9 6 5 6 5 5 5 6 6 6 7 8 7 7 7 7 7 7 6 7 8 8 7 7 7 7 7 7 7 7 6 5 5
15 13 14 11 12 10 14 14 15 18 17 15 14 13 11 9 8 5 4 5 6 6 6 6 6 6 7 7 7 7 7 7 7 6 6 7 7 7 7 6 6 6 6 6 6 5 4 4 3
13 13 13 12 11 11 10 18 12 16 16 17 16 14 12 10 8 5 3 5 6 6 6 6 6 6 6 7 6 6 6 6 6 6 6 6 7 6 6 6 6 5 5 5 5 4 4 3 3
14 14 13 13 11 9 10 18 15 14 13 13 15 15 13 10 7 4 3 4 4 4 5 5 5 6 7 6 5 5 6 5 5 4 5 6 6 5 5 5 5 4 4 4 4 4 3 3 3
Height
797 796 796 796 829 846 853 844 835 836 835 832 832 835 838 841 841 857 838 839 841 844 847 849 851 853 854 855 856 857 858 857 858 861 861 861 861 861 860 860 860 860 859 860 859 860 860 860 861
797 797 797 813 847 862 859 840 835 831 832 834 832 834 838 842 836 836 838 839 842 844 846 849 851 853 855 856 857 857 858 860 862 863 862 863 862 863 861 863 862 862 862 862 862 862 862 863 863
797 797 808 833 859 858 855 835 832 830 833 830 835 836 837 839 835 836 836 837 841 844 847 849 851 854 855 857 857 859 860 862 863 864 864 865 865 865 865 866 864 864 863 864 864 864 865 866 866
797 800 818 840 837 834 831 829 829 835 831 830 834 841 836 834 835 836 837 838 841 845 847 850 852 854 855 856 858 860 861 863 863 864 865 867 868 868 867 867 866 867 867 867 867 867 867 868 870
798 811 838 844 838 831 829 827 832 833 829 832 833 841 839 834 834 835 837 840 842 845 848 850 853 855 856 858 859 861 862 864 866 868 868 868 869 869 870 869 870 869 868 869 869 869 870 871 872
811 820 847 850 839 828 825 826 828 829 831 834 837 841 838 834 834 835 838 840 843 845 848 851 853 855 857 858 860 862 864 866 867 868 868 869 871 872 873 873 872 872 872 872 872 872 874 873 875
815 832 843 842 838 829 824 827 830 831 832 832 832 842 836 833 833 835 838 840 843 845 847 850 852 854 857 859 861 862 864 866 867 868 870 871 873 874 875 876 876 876 875 875 875 876 876 877 877
815 828 842 842 843 832 820 824 821 825 828 829 829 837 835 830 832 834 837 840 842 845 847 849 852 854 856 858 860 862 864 865 867 869 871 873 874 876 877 878 879 879 878 878 878 879 879 880 880
810 838 847 837 841 824 821 821 823 824 828 829 828 828 827 828 832 834 836 839 841 843 846 848 851 853 855 857 860 861 863 865 867 869 872 874 875 877 878 879 880 880 881 881 881 881 882 882 883
821 841 834 825 826 820 821 820 824 825 828 828 828 826 826 828 830 832 834 836 839 841 844 847 849 852 854 856 858 861 863 865 867 869 871 873 875 877 878 879 881 882 882 883 884 884 884 885 885
821 829 822 817 816 818 821 820 822 827 831 824 823 822 825 827 829 830 832 834 836 840 842 845 847 850 852 855 857 860 861 864 866 868 870 872 874 876 878 880 881 883 884 885 886 886 886 887 887
818 817 817 814 814 818 820 820 820 823 816 815 816 817 822 824 825 826 828 831 834 837 840 843 846 847 850 853 855 857 860 862 864 866 868 871 872 875 878 880 881 882 885 886 887 888 889 889 890
816 817 815 814 815 816 816 818 820 818 813 814 815 818 820 822 823 825 828 831 833 835 838 841 843 845 848 850 852 854 857 859 862 864 866 868 871 872 875 879 880 881 884 887 888 889 890 891 892
817 817 817 816 816 816 818 820 818 811 814 816 818 818 818 819 820 823 825 826 829 832 835 838 840 842 844 847 849 852 854 856 858 861 864 867 869 872 874 876 879 880 883 886 888 889 891 892 893
818 820 821 819 818 818 818 826 821 810 815 816 818 818 819 818 820 817 819 823 827 830 833 835 837 839 841 843 846 849 852 854 857 859 862 864 867 870 872 874 877 878 882 885 888 889 891 892 895
827 833 836 821 823 819 820 835 812 811 816 815 817 818 818 815 813 816 818 821 824 826 829 832 834 836 838 841 843 846 849 851 854 857 859 862 865 868 870 873 875 877 881 884 887 889 890 892 896
844 842 841 833 825 823 826 826 810 815 818 816 817 816 816 814 812 811 813 816 819 822 825 828 830 832 835 838 841 844 847 850 852 854 856 859 862 865 868 870 873 876 880 884 886 888 890 892 896
842 842 842 837 824 827 828 827 816 813 817 815 814 814 813 811 803 804 808 811 815 817 820 823 826 828 832 836 839 842 844 847 849 851 855 857 860 862 865 867 871 875 879 883 886 888 890 892 895
833 836 835 832 822 826 828 825 814 808 815 813 809 808 804 802 790 798 802 807 809 812 814 817 821 824 828 832 835 838 841 844 847 850 853 856 858 860 862 865 870 873 877 880 883 886 889 894 897
828 832 838 832 825 827 825 821 808 808 803 797 794 794 793 790 789 789 794 798 800 804 808 812 815 819 823 828 830 833 837 841 845 848 850 854 857 859 861 864 868 871 874 878 881 882 887 892 894
831 836 836 830 824 828 826 820 810 792 792 788 786 779 780 777 777 781 785 787 792 797 800 805 810 815 819 823 827 831 835 839 842 845 848 851 855 858 861 864 866 870 873 875 879 881 882 886 891
832 824 825 826 831 843 823 832 801 789 785 783 774 774 767 766 768 770 775 779 782 784 792 798 804 809 814 818 822 824 827 832 836 840 845 848 852 857 861 863 866 869 872 874 877 880 882 884 885
820 821 827 826 836 835 833 834 789 791 786 772 763 759 757 757 760 763 765 767 772 780 785 792 799 805 808 813 818 821 824 828 832 837 842 845 850 855 859 862 865 868 871 873 875 878 881 883 883
818 822 832 844 842 841 819 822 783 789 771 764 750 749 749 752 756 758 760 764 768 774 781 787 793 798 803 809 813 817 820 823 828 834 838 843 847 853 857 861 864 867 869 871 874 877 880 881 883
812 821 840 847 861 823 820 823 769 762 761 756 748 742 744 749 753 756 758 760 764 768 774 781 787 793 799 805 810 813 817 820 823 827 833 839 844 850 855 859 862 865 867 869 873 876 878 880 882
816 812 834 845 848 823 823 810 777 755 748 746 744 743 746 750 751 753 754 756 760 764 769 774 781 787 793 799 804 810 813 817 822 826 829 833 838 845 852 857 861 863 865 868 872 875 877 879 881
812 814 801 812 887 851 788 775 758 752 749 748 742 743 746 749 749 751 752 753 757 761 765 771 776 781 787 793 799 804 809 813 817 822 827 830 835 842 848 854 858 861 864 868 871 873 876 879 881
791 796 817 831 834 852 789 784 768 746 739 738 739 738 741 744 746 749 750 751 754 757 762 767 773 778 783 789 794 799 804 809 814 819 823 828 833 838 844 851 855 858 862 866 870 872 875 878 880
795 798 800 806 818 825 829 754 748 735 729 730 730 733 735 739 743 745 746 747 750 754 758 762 767 773 779 785 790 795 799 804 809 814 819 825 831 836 841 847 852 857 860 864 868 871 874 877 879
777 778 785 799 814 828 819 746 730 734 732 733 728 730 731 734 739 742 744 745 749 752 756 760 765 768 773 780 786 791 795 800 805 810 815 821 827 834 839 845 850 855 859 863 866 869 872 875 877
Wind_Speed
5 5 2 5 4 5 0 3 1 4 1 0 3 4 5 3 3 3 2 13 17 20 18 17 16 16 16 16 16 16 14 15 17 16 17 17 17 18 18 18 18 18 18 17 18 18 20 21 21
4 2 4 3 5 3 4 3 4 4 5 7 4 2 5 1 1 2 5 13 14 20 19 18 17 17 17 16 14 14 13 14 15 16 17 17 18 17 18 17 18 17 17 17 18 18 18 19 19
2 4 4 4 4 4 4 4 4 3 6 1 4 4 3 3 0 3 3 12 22 20 19 18 18 16 15 14 15 15 14 12 13 15 16 16 17 17 18 17 18 17 18 18 18 19 18 18 17
1 6 4 4 2 3 2 5 5 6 3 1 4 5 3 2 1 4 9 18 21 20 18 18 16 15 14 13 14 14 14 11 11 13 15 16 16 17 17 18 18 18 18 18 18 18 18 17 16
5 3 4 4 2 2 3 3 7 6 2 2 2 4 2 1 2 5 15 19 19 18 17 17 16 14 12 12 12 12 12 12 11 13 14 15 16 17 17 17 17 18 18 18 18 18 18 16 17
4 3 4 2 3 3 1 4 6 3 3 3 4 6 4 2 4 9 18 19 17 18 18 16 15 14 13 13 13 13 13 13 11 10 12 13 15 16 18 18 17 18 17 18 18 18 18 18 17
6 4 4 4 3 1 4 8 4 6 5 5 8 6 3 3 8 13 18 17 16 18 19 18 15 15 13 13 12 11 11 11 11 10 12 13 14 15 16 17 17 17 17 18 18 18 18 18 18
5 5 4 3 5 4 4 7 3 6 4 3 3 4 4 6 13 15 18 14 17 18 20 20 18 16 14 14 12 11 11 11 12 12 12 13 14 14 15 16 16 17 17 17 17 17 18 19 19
3 5 3 6 7 4 4 4 1 1 6 2 3 3 2 17 17 17 18 16 18 18 19 19 17 14 13 13 12 12 12 11 11 13 13 14 13 9 13 14 14 14 15 15 16 17 17 18 19
5 4 9 5 5 3 4 3 8 4 3 3 3 3 4 22 21 20 20 19 20 20 20 18 16 16 17 15 15 14 14 13 11 11 15 15 15 11 12 12 11 11 11 13 15 15 16 17 18
3 4 5 3 2 3 5 2 6 7 4 8 10 7 11 18 21 21 21 23 23 20 20 19 18 18 17 17 17 16 17 18 15 14 16 17 16 14 13 11 10 9 8 11 12 14 16 16 16
3 1 4 2 0 3 4 5 4 7 6 2 8 7 10 11 18 23 25 23 22 21 20 21 20 20 20 20 19 17 18 19 19 18 18 19 19 17 15 13 11 9 9 10 11 13 15 16 17
2 1 1 1 2 1 2 2 6 7 7 3 4 10 11 10 15 24 23 21 21 22 21 20 20 20 21 21 21 20 20 22 20 19 18 19 22 21 19 16 14 12 10 8 10 11 14 17 18
1 1 2 1 2 2 2 1 0 4 4 2 6 11 10 11 21 19 21 24 23 21 21 19 19 19 21 23 24 23 21 23 23 22 20 19 22 23 19 20 16 14 11 10 10 12 15 17 19
2 2 4 3 2 3 3 6 10 3 3 5 8 9 8 12 18 28 29 26 24 22 19 19 18 17 18 20 22 23 21 21 21 22 23 21 23 24 21 20 17 15 12 12 13 14 16 19 21
4 5 3 2 3 2 5 8 8 3 7 11 10 9 9 11 22 27 25 25 23 22 21 18 16 16 17 18 20 23 22 22 22 23 22 21 21 24 24 21 18 15 15 15 15 17 21 24 26
6 3 3 8 6 2 4 6 3 1 6 9 9 9 9 9 15 26 28 25 25 23 21 19 18 16 15 18 19 22 22 22 22 22 23 23 24 23 24 21 17 16 15 15 16 21 24 30 30
6 3 4 4 2 2 4 13 11 6 6 11 9 10 10 11 19 29 29 27 25 24 22 20 19 18 18 20 22 22 22 23 25 23 24 25 26 26 26 21 18 17 17 18 21 26 29 32 33
5 4 4 4 3 4 8 11 11 8 6 11 11 11 14 15 25 24 29 29 27 26 25 24 23 22 23 25 25 25 24 22 20 21 21 23 25 23 20 19 19 18 21 25 27 30 33 33 32
3 3 5 5 3 5 9 14 13 8 9 11 15 15 16 12 9 16 29 32 34 32 29 27 27 27 27 28 29 26 26 22 22 23 22 19 19 19 20 22 24 24 25 28 32 34 35 32 22
5 6 5 7 3 4 4 8 8 8 7 8 10 15 12 18 18 11 21 34 36 36 35 33 31 29 29 31 30 23 26 23 22 22 23 22 20 21 22 25 26 25 25 30 32 31 33 26 14
6 8 5 3 1 5 2 6 6 7 10 9 14 12 19 18 12 9 18 24 35 44 39 36 34 32 32 33 33 33 34 26 25 29 26 25 23 23 24 25 26 27 27 30 28 27 21 23 22
7 6 6 3 3 4 4 1 4 2 8 14 13 16 16 13 11 13 16 29 34 33 40 37 34 34 34 35 37 35 33 31 31 31 28 26 25 24 26 27 28 28 27 27 26 24 22 21 22
8 6 5 4 2 5 11 9 10 7 12 7 12 11 11 8 8 8 17 24 28 32 36 37 36 36 36 36 36 35 35 34 34 32 31 29 28 28 29 29 29 29 28 27 25 22 20 18 17
3 6 2 3 1 10 3 3 16 4 7 11 13 13 4 5 6 7 9 16 22 29 32 33 37 32 37 36 37 37 37 36 38 38 37 34 33 32 33 32 31 30 27 25 24 22 20 18 18
9 8 6 8 4 6 5 8 7 12 11 10 10 11 4 6 6 8 8 16 21 27 31 33 34 32 38 38 38 37 36 36 36 38 39 39 39 39 36 33 31 30 28 26 24 22 20 19 18
7 8 4 1 2 2 5 7 8 8 13 8 14 6 7 7 8 8 8 18 21 26 29 32 33 33 38 39 38 37 36 36 37 39 39 41 43 41 38 35 33 30 28 26 24 22 21 19 18
6 6 3 2 3 5 6 6 7 7 10 12 13 10 8 7 7 6 7 16 21 26 29 32 33 35 38 39 39 38 37 36 37 40 41 42 43 42 40 37 34 31 29 27 24 23 21 20 18
4 5 2 4 5 5 3 9 8 11 11 8 8 7 6 7 8 7 7 17 22 25 29 34 35 34 37 40 39 38 37 37 37 40 42 43 44 43 41 38 35 33 31 28 25 23 22 19 18
2 6 8 5 5 3 3 15 3 7 6 7 7 4 1 3 6 7 7 14 18 23 29 33 33 36 39 41 39 38 37 37 38 40 42 44 45 43 41 39 36 33 31 28 25 24 22 19 18
Wind_Direction
330 334 322 36 58 65 228 259 270 139 220 187 81 129 163 76 136 197 127 134 149 152 153 156 156 152 147 140 134 126 113 98 94 93 93 89 88 85 79 78 77 74 76 77 79 78 77 81 81
340 333 46 74 88 75 266 260 190 189 151 136 86 72 52 81 200 134 142 183 163 158 158 158 158 151 145 142 134 122 116 106 105 100 93 88 85 83 80 78 79 79 79 81 83 83 84 87 87
49 46 77 90 111 164 196 214 178 108 142 109 99 53 145 151 182 157 164 167 164 161 161 159 157 153 146 144 136 134 130 119 109 106 99 93 87 83 81 79 77 78 77 79 82 83 87 88 85
144 30 40 81 174 213 209 183 160 133 256 88 119 82 309 266 181 145 153 154 162 163 163 161 160 158 154 148 143 145 141 134 116 107 101 97 92 84 77 75 75 77 80 81 84 85 87 87 81
51 59 57 77 294 272 250 176 152 160 116 113 155 186 188 284 206 173 164 162 166 167 167 167 165 166 160 155 153 153 148 146 133 128 116 102 93 84 78 75 77 78 78 82 85 87 86 87 82
46 91 65 176 252 292 187 169 143 155 140 147 93 141 203 242 188 159 168 168 172 173 172 173 173 174 168 165 163 161 161 156 148 134 119 108 99 89 79 73 75 78 80 82 84 86 87 86 87
115 86 175 166 191 275 177 149 168 172 157 220 158 136 265 248 175 163 171 174 180 177 175 177 178 179 178 173 169 167 163 158 156 149 134 125 114 101 88 79 77 78 82 85 85 87 88 89 87
102 90 112 211 194 230 180 172 170 163 186 105 169 195 221 199 172 165 173 177 179 181 183 182 180 181 183 180 178 175 172 167 167 164 151 140 127 113 103 91 86 80 84 85 87 89 90 88 86
119 66 168 199 155 232 166 151 106 104 120 223 205 165 245 164 165 161 166 168 178 180 185 182 182 185 190 192 194 187 183 178 176 174 166 155 143 141 127 117 109 100 95 93 93 91 90 90 88
83 116 210 185 196 214 197 167 169 156 136 243 271 230 189 165 168 171 175 176 178 181 187 192 189 207 200 199 203 201 190 193 197 194 181 169 168 164 151 140 131 119 114 105 100 95 94 90 88
161 170 187 218 219 192 182 201 177 136 234 220 206 186 165 174 181 185 188 189 189 187 187 206 197 205 205 203 204 213 199 196 198 204 191 181 178 180 169 158 146 136 121 113 106 105 99 95 91
97 122 174 175 263 124 170 127 197 193 217 323 227 172 169 176 192 195 197 196 195 196 197 202 210 205 210 213 212 214 214 205 201 202 192 194 187 187 178 173 158 152 138 128 113 103 98 95 91
85 207 237 10 104 172 156 210 225 239 239 1 128 160 187 197 203 206 208 208 207 208 208 208 212 213 215 214 214 217 216 210 209 203 201 203 196 189 184 178 169 159 148 135 124 110 105 99 97
140 147 327 349 301 299 214 256 149 271 117 126 175 201 201 203 205 209 212 211 211 212 214 216 220 220 220 220 219 219 218 212 210 210 212 209 206 196 191 180 172 159 155 148 133 124 117 109 108
68 344 330 223 218 245 149 299 240 195 135 205 217 223 224 225 215 218 216 215 215 217 218 221 225 227 224 221 218 212 219 214 214 212 213 213 207 198 190 181 171 160 160 158 145 132 126 120 117
48 49 16 301 143 319 131 261 269 195 171 224 225 230 233 236 228 228 226 224 220 222 223 225 227 227 223 214 214 211 213 213 210 206 208 205 207 199 189 181 174 165 161 159 149 142 132 126 121
10 237 211 318 200 133 176 261 261 102 211 250 235 237 238 256 248 234 228 226 223 223 222 223 223 224 209 203 208 202 207 205 198 202 199 198 195 192 191 181 173 169 166 163 162 150 144 133 123
199 210 247 243 218 184 237 260 271 252 200 242 247 243 242 242 244 234 229 224 222 221 221 220 216 213 203 198 200 190 190 189 189 182 187 184 190 194 186 174 176 175 173 171 160 149 142 135 128
135 178 215 248 248 193 242 261 264 271 229 247 242 241 239 233 244 235 231 224 220 219 217 213 207 202 199 195 191 188 185 185 186 184 185 189 191 181 182 183 182 178 178 168 160 147 142 133 130
145 184 250 278 250 188 272 260 260 241 242 220 230 235 235 237 221 212 223 219 218 217 215 211 209 204 201 203 196 188 185 182 182 179 177 181 191 193 198 186 173 171 167 163 160 155 143 142 147
212 192 216 222 312 240 306 281 243 261 242 260 243 238 238 232 233 211 203 213 214 216 214 211 206 205 202 204 198 187 180 175 176 178 178 175 185 185 180 175 172 168 167 162 163 162 157 158 160
241 204 171 201 91 252 152 288 262 238 250 234 250 233 240 236 234 209 201 202 209 216 215 212 206 201 204 205 201 194 187 172 184 181 178 175 178 181 179 177 172 166 162 162 161 163 172 171 150
225 131 162 151 182 319 188 204 241 315 266 260 248 243 243 237 219 214 203 209 212 207 210 209 205 200 205 204 206 199 192 189 185 179 177 175 176 183 182 179 175 171 167 163 163 164 164 158 152
144 88 59 53 103 279 175 170 273 192 220 254 260 256 242 237 233 224 209 207 204 207 206 205 203 203 204 206 204 201 197 189 181 178 175 173 174 177 177 175 171 167 163 160 159 159 159 157 151
147 108 300 321 17 242 84 159 242 269 261 222 246 259 266 211 203 205 188 187 187 191 194 195 198 196 203 204 207 207 205 199 193 185 181 174 173 175 175 173 169 165 163 159 158 155 149 147 144
200 167 175 210 208 270 141 228 245 243 267 246 256 261 190 192 218 216 200 191 190 191 190 189 190 191 201 205 207 207 207 203 198 192 187 185 182 180 177 175 172 169 164 160 159 154 151 149 146
197 206 221 333 89 355 243 281 295 263 269 278 251 249 247 241 241 223 196 196 192 192 193 191 189 192 199 205 206 206 207 204 201 195 191 189 186 180 178 177 174 170 166 165 163 160 156 155 151
166 167 75 345 201 256 266 269 228 263 252 247 267 247 229 235 253 224 200 196 201 201 196 192 192 196 199 205 207 207 206 205 204 200 197 194 185 181 179 178 177 172 171 169 167 162 160 160 155
136 204 154 141 158 189 296 266 212 222 232 223 261 275 229 216 233 226 207 202 204 202 195 193 193 195 201 206 205 206 204 204 205 205 201 194 187 184 182 181 179 177 174 172 171 168 166 167 162
285 218 166 152 220 241 176 268 171 231 273 225 250 288 240 232 218 211 201 191 193 196 198 196 195 197 207 207 205 206 205 205 205 205 201 195 190 187 185 184 183 181 179 177 177 176 175 176 172